190P/Mueller (2024)

Japanese version
Home page
Updated on March 24, 2025

---------------------------------------------------------------------

* Profile

* Pictures

* Orbital Elements

Epoch 2024 Mar. 31.0 TT = JDT 2460400.5
T 2024 Dec. 24.09417 TT                                 Rudenko
q   2.0197153            (2000.0)            P               Q
n   0.11339636     Peri.   50.50121     +0.89852068     -0.43864915
a   4.2273673      Node   335.50441     +0.39016803     +0.81460534
e   0.5222286      Incl.    2.17455     +0.20107086     +0.37947999
P   8.69
>From 351 observations 1998 Sept. 14-2024 June 16, mean residual 0".7.

* Magnitudes Graph

        H = 15.0  G = 0.15

---------------------------------------------------------------------

The orbital elements are published on M.P.E.C. 2024-M41.
The magnitudes graphs are made with Comet for Windows.

---------------------------------------------------------------------

Copyright(C) Seiichi Yoshida (comet@aerith.net). All rights reserved.